{"data":{"norad_id":57740,"intl_designator":"2023-131J","name":"STARLINK-30331","alt_names":[],"object_type":"PAYLOAD","status":"ACTIVE","operator":null,"country":"US","launch_date":"2023-09-01","launch_site_code":"AFETR","launch_vehicle":null,"mission":null,"orbit_class":"UNKNOWN","rcs_meters":null,"size_class":null,"mass_kg":null,"dimensions":null,"purposes":["comms"],"wikipedia_slug":null,"has_3d_model":false,"image_url":null,"decayed_at":null,"tle_current":{"epoch":"2026-05-25T01:18:15.135840Z","epoch_age_seconds":73395,"freshness":"FRESH","line1":"1 57740U 23131J   26145.05434185 -.00000073  00000+0  68626-5 0  9994","line2":"2 57740  43.0029  28.1322 0001099 245.6563 114.4174 15.27580762152453","mean_motion":15.27580762,"eccentricity":0.0001099,"inclination_deg":43.0029,"raan_deg":28.1322,"arg_perigee_deg":245.6563,"mean_anomaly_deg":114.4174,"bstar":6.8626e-6,"rev_number":15245,"period_min":94.266701690761,"perigee_km":482.29277023728,"apogee_km":483.80085843967,"semimajor_km":6861.1838143385,"source":"CELESTRAK","updated_at":"2026-05-25T13:38:18.399614Z"}}}